Wind_Speed
62 62 61 61 60 60 60 59 57 56 56 55 54 53 52 51 50 49 47 46 45 44 44 43 42 41 40 39 39 38 38 38 37 36 36 35 35 34 34 34 34 35 35 35 36 36 36 37 37 38 38 38 39 39 40 41 42 42 43 44 45 46 46 46 47 47 47 47 47 48 48 48 48 49 49 50 51 52 53 53 54 54 55 56 56 56
61 61 60 60 59 58 58 57 56 54 53 53 53 52 51 50 49 48 46 45 44 43 42 42 41 41 40 39 39 38 37 36 35 34 34 33 33 33 33 34 34 34 35 35 35 36 36 37 37 37 37 38 38 38 38 39 39 39 40 40 41 41 42 42 42 42 43 43 44 44 45 45 45 46 46 47 48 49 50 49 49 49 50 50 51 50
60 60 59 59 57 56 56 55 54 53 52 51 51 50 49 49 48 47 46 45 44 43 42 42 41 41 40 39 38 37 35 34 33 33 33 33 33 33 33 33 34 34 34 34 35 35 35 35 36 36 36 37 37 37 37 38 38 38 38 39 39 39 39 39 40 40 41 41 41 42 42 42 42 42 43 44 44 44 43 42 42 42 43 43 43 43
58 58 58 57 56 55 54 53 52 52 51 50 49 49 48 48 47 46 45 44 44 43 43 42 42 41 40 39 37 35 34 33 33 32 33 33 33 33 33 32 32 32 32 32 32 32 32 33 33 33 34 34 35 36 36 37 37 38 38 38 39 39 39 39 39 39 40 40 39 39 39 39 39 40 40 41 41 40 39 39 39 40 40 40 40 40
57 56 56 55 55 54 53 52 51 50 50 49 48 47 47 47 47 46 46 45 45 44 43 42 41 40 39 38 36 35 34 33 33 33 33 32 32 31 30 30 29 29 29 29 29 29 30 30 30 31 32 32 33 34 34 35 36 37 37 38 39 39 40 40 40 40 40 39 38 38 38 39 39 40 41 41 41 41 41 41 41 41 42 41 41 42
56 54 54 53 53 53 52 51 50 49 48 48 48 47 46 46 46 47 47 46 45 44 43 42 41 39 38 37 36 35 34 33 33 33 32 31 30 29 28 27 27 27 27 27 28 28 29 29 30 30 31 31 32 33 33 34 34 35 36 37 38 39 39 40 41 41 40 40 40 40 41 42 42 43 43 44 44 44 44 45 45 45 45 45 45 46
55 54 52 52 51 51 50 49 48 47 47 48 48 47 47 46 47 47 47 46 45 44 42 41 40 38 38 37 36 35 34 33 32 31 30 29 28 27 26 26 26 27 27 27 28 28 29 29 30 30 31 31 32 32 33 33 34 34 35 36 37 38 39 40 41 41 41 42 42 43 43 44 45 45 46 46 46 46 46 46 47 47 48 48 48 49
53 53 52 50 50 50 49 48 47 47 46 47 48 48 48 47 47 47 46 45 44 43 42 40 39 38 37 36 35 34 33 32 31 30 29 28 27 27 26 27 27 27 28 28 28 29 29 29 30 30 31 31 32 32 33 33 34 34 35 36 36 37 38 39 39 40 41 42 43 44 44 45 46 46 47 47 48 48 47 47 47 48 48 49 50 50
50 50 50 49 48 48 48 48 47 47 46 47 47 48 48 48 47 46 45 43 42 41 41 40 39 38 36 35 34 33 32 31 31 30 30 29 29 28 28 28 28 28 28 28 29 29 29 29 29 30 30 31 32 32 33 33 34 35 36 36 36 36 37 37 38 39 40 41 42 43 44 45 46 46 47 48 48 48 48 47 47 48 49 49 50 50
49 48 48 48 47 47 47 47 47 47 47 47 47 47 47 48 47 46 44 42 41 40 39 39 39 38 36 34 32 32 31 31 31 30 31 30 30 29 29 29 29 29 29 29 29 29 29 29 30 30 30 31 31 32 33 34 34 35 36 36 36 36 36 36 37 37 38 39 40 42 43 44 45 46 47 47 48 48 48 48 48 48 49 49 50 50
48 47 47 47 47 46 46 46 47 47 47 47 47 46 45 45 45 45 44 43 41 39 38 37 37 37 36 34 33 32 32 31 31 31 31 31 31 30 30 29 30 30 30 30 30 30 30 30 30 30 30 30 31 31 32 33 34 35 35 36 36 36 36 37 37 37 37 38 39 40 41 43 44 45 46 47 47 48 48 48 48 49 49 49 49 49
46 46 46 46 46 46 46 47 47 46 46 46 45 44 43 42 42 43 43 43 42 40 38 36 35 35 35 35 35 34 33 33 33 32 32 32 32 32 31 31 31 31 32 32 32 32 32 31 31 30 30 30 30 30 31 31 32 33 34 35 36 36 36 37 37 37 37 38 38 39 40 41 42 43 44 45 46 47 48 48 49 49 49 50 50 50
45 45 45 46 46 46 46 46 46 45 44 44 43 43 42 41 41 41 42 42 41 39 38 36 35 34 34 35 36 37 36 36 35 34 34 34 34 34 34 34 33 34 34 34 34 34 33 32 32 30 29 29 28 29 29 30 31 32 33 34 34 35 36 36 37 37 37 38 38 38 39 39 40 41 42 43 45 46 47 48 49 49 50 50 50 50
44 44 45 45 45 46 45 45 45 44 43 42 41 41 41 41 41 41 41 40 39 38 37 36 35 34 34 35 37 38 38 38 38 37 36 36 36 36 36 36 36 36 36 37 36 35 34 33 32 30 29 28 27 27 27 28 29 30 31 32 33 34 35 36 36 37 37 38 38 38 38 39 39 40 41 42 43 44 45 46 47 48 49 49 50 50
43 44 45 45 45 45 44 44 43 43 41 40 39 39 40 40 40 40 39 39 38 37 36 36 35 35 34 36 37 38 39 40 40 40 39 37 37 37 38 38 38 38 38 38 37 36 34 33 31 30 28 26 26 25 26 27 28 29 30 31 32 33 34 35 36 36 37 37 38 38 38 38 39 39 40 40 41 42 43 44 45 46 47 48 49 49
43 44 44 45 45 44 43 42 41 41 39 38 38 38 39 39 38 38 38 38 37 37 37 37 37 36 35 35 36 37 39 40 41 41 41 39 37 37 38 39 39 39 38 38 37 35 34 32 30 29 27 26 25 25 25 26 27 28 29 30 31 32 33 34 35 36 36 37 37 38 38 38 39 39 39 39 40 41 41 42 43 44 45 46 46 47
43 44 44 44 44 43 42 40 39 38 38 37 37 37 37 37 37 37 37 37 37 38 38 39 40 40 38 36 35 36 38 40 42 42 42 40 39 38 38 39 40 39 38 37 36 35 33 31 30 29 28 26 25 25 25 25 26 27 28 29 30 31 32 33 34 35 36 36 37 37 38 38 38 39 39 39 39 40 40 41 42 42 43 44 44 45
44 44 44 44 43 42 40 38 37 36 36 36 36 36 36 35 35 35 36 37 38 39 39 40 40 41 41 39 37 37 38 40 42 42 42 41 40 38 38 39 39 39 38 36 35 34 33 31 30 29 28 27 26 25 25 25 25 26 27 28 29 30 31 32 33 34 35 36 36 37 37 37 37 38 38 38 38 38 39 39 40 40 41 41 42 43
44 43 43 42 41 40 38 36 35 34 34 35 35 35 34 34 34 34 35 37 38 39 40 40 41 41 41 41 40 38 38 40 41 42 42 42 40 39 39 39 39 38 37 36 35 34 33 32 30 29 28 27 25 25 24 24 24 25 26 27 27 29 30 31 32 33 34 34 35 35 35 35 35 35 36 36 36 36 36 36 37 37 38 39 39 40
43 42 40 39 38 37 35 33 32 32 33 33 33 34 34 33 34 34 35 36 38 38 39 40 41 41 41 41 41 39 38 39 40 41 42 42 40 39 39 39 39 38 37 35 35 34 34 33 31 29 28 26 25 24 23 23 23 24 25 26 28 29 30 31 32 33 33 33 33 33 33 33 33 33 33 33 33 33 33 33 33 34 34 35 36 37
42 40 37 35 35 34 33 32 31 31 31 31 32 32 33 33 34 35 35 36 37 38 39 40 41 41 41 42 40 39 37 38 39 41 42 41 40 39 39 39 39 38 37 36 35 35 35 34 32 30 28 26 24 23 22 22 23 24 25 27 28 30 31 31 32 32 32 32 32 32 32 32 32 32 31 31 31 31 30 30 30 31 31 31 32 33
39 37 34 31 31 31 31 31 30 29 29 30 31 32 33 34 34 35 36 37 38 39 39 40 41 41 42 41 39 37 36 36 38 40 42 42 40 39 38 39 39 39 38 37 36 36 35 34 32 29 27 24 22 21 21 21 22 24 26 27 29 30 30 31 31 32 32 32 32 32 32 32 31 31 30 29 28 28 27 27 27 27 28 28 29 30
35 33 31 29 28 29 29 29 29 29 28 29 29 30 32 33 34 35 36 37 38 39 40 41 42 42 41 39 37 35 34 35 37 40 41 42 41 40 39 39 40 40 39 38 38 37 35 33 30 27 24 21 20 19 20 21 22 24 26 27 28 29 30 30 31 31 32 32 32 32 31 31 30 29 28 27 26 26 25 25 24 25 25 26 26 27
31 30 29 28 27 27 27 27 27 27 28 28 29 30 31 32 34 35 37 38 39 40 42 42 42 41 39 37 34 33 32 34 37 39 41 42 42 41 40 40 41 41 40 39 39 38 35 31 28 24 21 19 18 18 18 20 22 24 25 26 27 28 29 29 29 30 30 30 29 29 29 28 28 27 27 26 25 25 24 24 23 23 23 23 24 25
29 28 27 26 25 25 25 25 26 26 27 28 29 30 31 33 34 35 37 37 39 40 41 42 41 40 38 35 33 31 32 34 36 39 41 42 42 41 41 41 42 42 41 40 39 37 34 30 25 21 19 17 16 16 17 19 21 22 24 24 25 26 26 26 26 26 26 25 25 25 24 24 24 24 24 24 24 24 24 24 23 23 23 23 23 24
26 25 24 24 23 23 23 24 24 25 26 27 29 30 32 33 35 36 36 37 38 39 40 40 40 38 36 34 32 31 32 33 36 38 40 42 42 42 41 41 42 42 42 40 38 35 32 28 23 19 16 14 14 14 16 17 19 20 20 21 21 22 21 21 21 21 21 21 21 21 21 22 22 22 23 23 23 24 24 24 24 24 24 24 25 25
23 22 22 22 22 22 22 23 24 25 26 27 28 30 32 33 34 35 35 36 37 38 38 38 38 37 36 34 33 32 32 34 36 38 40 42 43 43 42 42 42 43 42 40 37 33 30 26 21 17 14 12 12 13 13 14 15 15 16 16 17 17 18 18 19 19 20 20 21 21 22 23 23 24 24 25 25 25 25 25 25 26 26 26 27 27
21 20 20 20 21 21 22 23 24 25 26 27 28 29 31 32 33 34 34 35 35 36 36 36 37 37 36 35 34 33 33 34 36 38 40 42 43 43 43 42 42 42 42 39 35 30 27 24 20 16 13 12 12 11 11 12 12 12 13 13 14 15 16 17 18 19 20 20 21 22 22 23 24 25 25 26 26 26 26 27 27 27 28 28 29 29
19 19 19 20 21 22 23 23 24 25 26 27 28 29 30 31 32 32 33 33 33 33 34 35 35 36 36 36 35 34 33 34 36 38 40 42 43 43 43 42 42 42 42 39 33 27 24 22 19 16 14 12 12 11 11 11 11 11 11 12 12 14 15 16 17 18 18 19 19 20 21 22 23 23 24 25 25 26 26 26 27 28 29 30 31 31
18 18 19 20 21 22 23 24 24 25 26 27 28 29 29 30 30 30 30 31 31 32 33 34 35 35 36 36 36 35 34 34 35 37 40 41 43 43 42 41 41 41 41 39 34 27 21 18 17 16 14 13 12 11 11 11 11 11 11 11 12 13 15 16 16 17 17 18 18 19 20 21 22 23 23 24 25 25 25 26 26 28 29 30 31 32
19 19 20 21 22 23 23 24 25 26 27 28 28 28 27 27 27 27 28 28 29 31 32 34 34 34 35 36 36 36 35 35 35 37 39 41 42 42 42 41 40 39 39 38 35 29 21 15 14 13 13 12 11 11 12 12 12 12 12 13 13 14 15 16 16 16 17 17 18 19 20 21 22 22 23 24 24 24 25 25 26 27 29 30 31 31
20 21 22 22 23 24 25 26 27 28 28 28 27 25 25 24 24 25 26 27 28 30 31 33 33 33 33 34 34 35 35 35 35 37 39 40 41 41 41 40 39 38 36 35 33 29 23 16 12 11 11 11 11 11 12 13 13 14 14 14 14 15 15 16 16 17 17 18 19 20 21 22 23 23 23 23 24 24 24 24 25 26 28 30 31 31
21 22 23 24 25 26 27 28 29 29 28 26 24 23 22 22 22 23 24 25 27 28 30 31 32 33 33 32 32 33 33 34 35 36 38 39 40 40 40 39 38 37 34 31 29 25 22 17 13 11 10 11 12 12 13 13 14 15 15 15 16 16 17 18 18 19 19 20 21 22 23 24 24 25 24 24 24 23 23 23 23 24 26 28 30 30
23 24 25 26 27 28 29 29 29 28 25 23 21 20 20 20 21 22 23 24 25 26 28 29 31 32 32 32 32 32 32 32 33 35 36 38 38 39 39 38 37 35 33 29 26 21 18 15 14 12 11 10 11 13 14 15 15 16 17 18 19 19 20 21 21 22 22 23 24 24 25 26 26 26 25 25 24 24 23 22 22 23 24 26 28 29
24 26 27 28 29 30 30 29 27 24 22 19 18 18 19 19 20 21 22 23 24 25 26 28 29 29 30 31 32 32 32 32 32 33 35 36 36 37 37 36 35 33 31 28 24 19 15 13 13 13 13 12 12 13 14 15 16 18 19 20 22 23 24 24 25 25 25 26 26 26 27 27 27 27 26 25 24 23 22 22 21 22 22 24 26 28
26 28 29 30 31 30 29 27 24 20 18 16 16 17 18 18 19 20 21 22 23 24 25 26 27 27 28 29 30 31 32 32 32 32 33 34 34 35 35 34 33 31 29 26 22 18 15 12 11 12 14 14 14 14 15 16 17 19 20 21 23 24 25 26 27 28 28 28 28 29 29 30 29 29 27 25 24 23 22 21 21 21 22 23 24 26
29 29 30 31 30 29 27 24 20 17 15 15 15 16 17 18 18 19 20 22 23 25 26 26 26 26 26 26 28 29 30 31 31 32 32 32 32 33 33 32 30 28 27 24 21 18 15 13 12 12 13 15 17 18 18 19 19 20 21 22 24 25 26 27 29 30 30 31 31 31 32 32 32 31 28 26 24 22 21 20 20 21 22 23 24 25
30 30 30 30 28 26 24 21 17 15 15 15 16 17 18 18 19 20 21 23 25 26 26 27 26 25 25 25 26 27 28 29 30 30 30 30 30 31 31 30 28 26 24 22 20 18 16 15 15 15 15 16 18 20 22 23 24 24 24 24 25 26 27 29 30 31 32 33 33 33 34 34 34 33 30 27 25 22 20 19 20 20 22 23 24 25
30 30 29 28 26 24 21 18 16 15 15 16 17 18 18 19 20 21 23 25 26 27 28 28 27 26 25 25 25 26 27 28 28 29 29 29 29 29 29 28 27 24 22 20 19 18 18 18 18 18 19 20 20 22 23 25 27 28 28 27 27 27 28 30 31 32 33 34 34 35 35 36 35 34 32 29 27 24 22 20 19 20 22 23 24 25
29 28 27 25 23 20 18 16 15 16 16 17 18 19 20 21 22 23 25 26 28 28 28 28 27 26 25 25 25 25 25 26 27 28 28 27 27 27 27 26 25 24 21 19 18 18 19 19 20 20 22 23 24 25 26 27 28 30 31 31 31 30 30 31 32 33 33 34 35 36 37 37 36 35 33 31 29 27 24 22 21 22 23 24 24 25
28 27 25 22 20 17 16 15 15 16 17 18 19 20 21 23 25 26 27 28 29 29 29 28 27 26 25 24 24 24 24 25 26 26 27 26 26 25 25 25 24 23 22 20 19 19 20 21 21 22 23 24 26 26 27 28 29 31 32 34 34 33 32 32 32 33 34 35 35 37 38 38 38 36 34 32 30 27 25 23 22 22 23 23 24 24
26 25 23 20 17 15 14 15 15 16 17 19 20 22 23 26 27 29 30 31 30 30 29 28 28 27 25 24 23 22 22 23 24 25 25 25 24 23 23 23 23 23 22 21 21 21 21 22 23 23 24 25 26 27 27 28 29 30 32 34 35 35 34 33 33 33 34 35 36 37 38 39 39 37 35 33 30 27 25 23 22 22 22 22 22 23
24 23 20 18 15 14 14 14 15 16 18 20 21 23 25 27 29 31 32 32 31 30 29 28 28 27 27 25 23 21 21 22 23 24 24 24 23 22 22 22 22 22 22 22 22 22 22 22 23 24 25 25 27 28 29 29 30 31 32 33 35 36 36 35 34 33 34 35 36 37 39 40 40 38 35 33 30 27 25 22 21 21 21 21 21 21
23 21 18 16 14 13 13 14 15 17 19 21 23 25 26 28 30 31 33 32 31 29 28 28 28 28 27 27 25 23 21 21 21 22 23 23 22 21 21 21 21 21 22 22 22 23 23 23 24 24 25 26 27 29 30 31 31 32 32 33 34 34 35 35 35 34 34 35 36 38 40 41 40 38 35 32 30 27 25 22 21 21 21 22 22 21
22 20 17 15 13 12 13 14 16 18 20 22 24 25 26 28 29 31 32 32 30 28 27 27 28 28 28 28 26 24 22 21 20 21 21 21 21 20 20 19 20 20 21 21 22 23 24 24 25 25 26 27 28 29 30 31 32 32 32 32 33 33 33 33 33 34 35 36 37 39 41 42 41 39 35 32 29 27 25 23 22 21 21 21 21 21
21 19 17 14 13 12 13 14 16 18 20 22 24 25 26 27 29 30 31 31 30 28 27 27 28 29 29 28 27 26 24 22 21 21 21 20 20 19 19 18 18 19 20 20 21 22 24 25 26 27 27 28 28 29 30 31 31 32 32 32 32 32 31 31 32 34 35 36 38 40 41 42 41 39 36 33 29 26 23 21 21 20 21 21 20 20
21 19 17 15 13 13 14 16 17 19 20 21 23 24 26 27 28 30 31 31 30 28 27 27 28 28 28 28 28 27 26 24 23 22 21 21 20 19 18 18 18 18 19 19 20 21 22 24 26 27 28 29 29 29 29 29 30 30 31 32 32 32 31 31 32 33 34 36 38 41 43 43 42 40 36 32 27 24 22 20 19 20 21 21 20 19
21 20 18 16 15 15 17 18 20 21 21 21 22 23 25 26 28 29 31 31 30 29 28 28 28 28 28 28 28 27 26 25 24 23 23 22 21 20 18 18 17 17 18 18 19 19 20 22 24 26 28 29 29 29 29 28 28 29 30 31 31 32 31 31 32 33 34 36 39 41 43 44 43 41 36 31 26 23 20 19 18 19 20 20 19 18
22 20 19 17 17 18 19 21 22 23 23 22 23 23 24 26 27 29 30 31 31 30 29 29 29 29 28 28 28 27 26 25 25 24 24 23 22 21 20 18 18 17 17 18 18 19 19 20 22 24 27 28 29 29 29 28 27 28 29 30 31 31 32 32 32 33 34 36 39 41 43 43 42 39 36 31 26 22 20 18 17 17 18 18 17 16
21 20 19 18 19 19 21 23 24 24 25 25 25 25 25 26 27 28 29 30 30 30 30 30 30 29 29 28 28 28 27 27 25 24 24 24 24 23 22 21 20 19 19 18 18 18 19 19 20 22 25 27 28 28 28 28 28 28 28 29 30 31 32 32 32 33 34 37 39 41 42 43 41 38 34 31 27 23 20 17 15 15 15 14 14 15
21 20 19 19 19 20 21 23 24 25 26 26 26 27 27 27 28 29 29 29 29 29 30 30 30 29 29 29 28 28 28 28 27 25 24 24 24 24 24 23 23 22 21 21 20 20 20 19 19 19 21 24 27 28 28 28 29 29 29 29 30 31 32 32 32 33 34 37 39 41 42 42 40 36 32 29 27 25 22 18 15 14 13 11 11 13
Wind_Direction
312 312 312 311 311 310 310 310 310 310 309 309 310 310 310 310 310 309 308 308 307 307 308 310 311 312 313 314 315 315 314 313 312 310 309 307 306 305 304 302 301 300 298 297 296 294 293 291 289 287 286 283 281 279 277 275 274 272 271 269 268 267 266 266 265 264 264 263 262 262 261 260 260 259 258 257 256 254 253 253 252 252 252 252 253 254
312 312 311 311 311 310 310 310 310 310 310 310 310 310 310 310 309 308 309 309 310 311 313 315 316 317 317 317 316 315 314 313 312 311 310 310 309 308 307 306 305 304 302 301 299 298 296 295 293 291 289 287 285 283 281 279 277 275 274 272 271 269 268 267 266 265 264 263 262 262 261 261 260 260 259 258 258 257 257 257 257 257 257 257 257 257
312 312 311 311 311 311 310 310 310 310 310 310 310 310 310 310 310 310 311 313 314 316 318 318 318 318 317 317 316 315 314 314 314 314 314 314 313 313 312 310 309 307 305 303 301 300 298 297 295 293 291 290 288 286 283 281 279 277 275 273 272 270 269 267 266 265 264 263 262 262 262 262 261 261 260 260 260 260 261 261 262 262 261 261 260 259
312 312 311 311 311 311 310 310 310 310 310 310 310 311 311 312 313 314 315 316 318 319 319 319 319 318 317 316 316 317 317 318 319 319 318 317 316 315 313 311 309 306 304 302 300 298 297 295 294 293 291 290 288 286 284 282 280 278 276 274 272 270 268 267 265 264 263 263 263 263 263 263 263 262 262 261 261 260 260 260 260 260 260 260 259 258
313 312 312 311 311 311 310 311 311 311 311 311 312 313 314 315 317 318 318 319 319 319 319 319 318 317 317 317 319 320 321 322 322 321 319 317 315 313 310 308 305 303 301 299 297 296 295 294 293 292 291 290 288 287 285 283 281 278 276 274 272 270 268 267 265 264 263 262 262 262 261 261 259 259 258 257 256 254 253 251 250 250 251 251 251 252
313 312 312 311 311 310 310 311 311 312 312 313 315 316 317 318 319 319 319 319 319 318 318 318 318 318 319 320 322 323 323 323 321 319 317 314 311 309 307 305 303 301 300 299 298 297 296 295 294 293 292 290 288 286 285 283 281 279 276 274 272 270 269 267 266 264 263 261 259 258 257 256 254 253 253 253 252 251 249 247 245 244 244 244 244 244
313 312 312 311 311 310 310 311 312 313 315 317 318 319 320 319 319 319 318 317 317 317 317 318 318 319 321 322 323 323 322 320 318 316 313 311 309 308 307 306 306 305 304 303 302 301 299 298 296 294 291 289 287 285 284 282 281 279 277 275 273 271 269 268 266 265 263 261 260 258 256 255 254 254 253 253 253 252 251 249 248 246 245 244 244 244
312 312 311 311 310 310 311 312 314 317 319 320 321 321 320 319 318 317 316 316 316 317 318 319 320 320 321 322 322 321 319 318 316 314 313 312 312 312 312 311 311 310 309 308 306 304 302 300 297 294 291 288 286 284 282 281 280 279 277 276 274 273 271 269 268 267 265 263 262 260 259 258 257 257 256 256 256 256 255 254 252 250 249 248 248 248
311 311 310 310 310 312 313 315 317 319 321 321 321 320 319 318 317 316 315 315 316 318 319 319 320 320 321 320 320 319 318 317 317 317 316 317 317 317 317 317 316 315 313 312 310 308 306 303 300 296 293 289 287 284 282 281 279 279 278 277 276 275 273 272 270 268 267 265 264 262 261 260 259 259 258 258 258 258 258 257 255 254 253 252 252 252
311 310 310 311 312 314 316 318 320 321 321 320 319 318 317 316 315 315 315 315 317 318 319 319 319 319 319 319 319 319 319 319 319 319 319 320 320 320 320 319 318 317 316 315 313 312 310 308 305 301 297 293 289 286 283 281 279 278 278 277 277 276 275 274 272 270 268 266 265 263 262 261 260 260 259 259 258 258 258 258 257 255 254 254 254 254
310 311 312 313 315 317 319 320 320 320 320 318 317 315 315 315 314 314 315 316 317 319 319 319 318 318 318 319 320 321 322 322 321 321 320 321 321 321 321 320 319 318 318 317 317 316 315 313 310 306 301 297 293 289 285 282 280 279 278 277 277 276 275 275 273 271 270 268 266 265 263 262 261 261 260 259 259 258 258 258 257 256 255 255 255 255
312 313 314 315 317 318 319 319 319 319 318 317 316 315 315 315 314 314 314 315 317 318 318 318 318 318 319 321 323 324 325 324 323 322 322 322 322 322 322 321 320 319 319 319 320 319 318 316 313 309 305 300 296 292 288 284 281 279 278 277 276 275 274 274 273 272 271 270 268 267 265 264 263 262 261 261 260 259 259 259 258 257 257 256 256 256
314 314 314 315 315 316 317 317 317 317 317 317 316 316 315 314 314 313 313 314 315 317 317 317 317 319 321 324 326 328 328 327 325 324 323 323 324 325 324 323 322 322 321 321 321 321 320 318 314 311 307 303 298 294 289 286 282 280 277 276 275 273 273 272 272 272 271 271 270 269 267 266 265 263 262 262 261 260 260 259 259 259 259 258 258 258
313 313 313 313 314 315 316 316 317 317 317 317 316 315 314 313 313 313 313 313 314 315 316 317 318 320 324 327 329 330 329 328 326 324 324 325 326 327 326 324 323 323 323 322 322 322 321 319 316 312 309 304 300 295 290 286 282 279 277 275 273 272 271 271 271 271 271 270 270 269 269 268 266 265 264 263 262 261 261 260 260 260 260 260 260 259
311 311 312 313 314 315 316 317 317 317 316 316 315 313 312 312 312 312 313 313 314 316 317 318 320 322 326 329 330 331 330 328 326 325 324 325 327 328 327 325 324 323 323 322 322 322 321 319 317 314 311 307 302 297 291 287 282 279 276 274 273 272 271 271 270 270 270 270 270 269 269 269 268 267 266 265 263 263 262 262 261 261 261 261 261 261
310 311 312 313 314 316 317 317 317 316 316 314 313 312 312 312 312 313 313 314 316 318 319 321 323 324 326 329 331 332 330 328 325 324 324 325 327 328 327 325 323 323 323 323 323 322 322 320 318 316 314 310 306 300 294 289 285 281 278 276 275 273 272 271 271 270 270 270 270 270 269 269 269 268 267 267 266 265 264 263 263 262 262 262 262 261
310 311 312 314 316 317 317 317 316 315 314 313 312 311 311 312 313 314 315 316 318 320 322 323 324 324 326 328 331 333 331 328 325 324 324 325 327 328 326 324 322 322 323 324 324 324 323 322 321 319 317 314 310 304 299 293 288 284 281 279 277 275 274 273 272 271 271 271 270 270 271 271 270 270 270 269 268 268 267 266 265 264 264 263 263 262
310 312 313 315 316 316 316 316 315 314 313 311 311 310 310 311 313 315 316 318 320 322 323 323 323 324 325 327 331 333 331 328 325 324 324 325 326 327 326 324 323 323 324 325 326 326 325 324 323 322 320 317 312 307 302 296 291 287 284 281 279 277 275 274 273 272 272 272 272 273 273 274 274 274 274 274 273 272 272 271 269 268 267 266 265 264
311 313 314 315 315 315 315 315 314 313 312 311 311 311 312 313 314 316 318 320 321 321 321 322 322 323 324 326 329 332 331 328 325 324 323 324 325 327 326 324 324 325 327 328 328 327 326 325 324 323 321 318 313 308 303 297 293 289 285 282 279 277 276 275 274 274 275 276 277 279 279 280 280 280 280 280 280 279 278 277 276 274 272 270 268 267
311 313 314 315 314 313 313 313 313 312 311 311 312 313 315 316 317 318 319 319 320 320 320 320 321 323 324 326 329 331 331 328 326 324 323 323 325 326 327 326 325 327 329 330 330 329 327 326 325 324 321 318 314 308 303 298 293 288 285 282 280 279 278 278 278 280 282 284 285 287 288 288 288 288 288 288 287 286 285 283 282 280 278 275 273 271
311 313 315 315 314 312 312 312 311 311 312 313 314 316 317 318 318 318 318 318 319 319 320 320 321 322 323 325 328 330 331 329 326 324 323 323 324 327 328 327 327 329 330 332 331 330 329 328 327 326 324 320 315 309 303 298 292 288 284 283 281 281 281 282 284 286 289 291 293 294 295 295 295 295 294 293 292 290 289 287 285 283 281 278 276 274
311 313 315 315 313 312 311 310 311 313 314 316 318 318 318 318 318 318 318 318 319 319 320 320 320 321 322 324 327 330 330 329 327 325 324 323 325 328 330 329 329 330 332 333 333 332 331 330 330 328 326 321 315 309 302 295 290 286 284 284 284 284 285 287 289 292 294 296 298 299 299 300 299 299 298 296 295 292 290 288 286 284 281 280 277 275
312 313 315 314 312 311 311 312 314 315 317 318 318 318 318 318 317 317 318 319 319 319 319 318 318 320 322 324 327 329 330 329 328 326 325 324 326 329 331 331 331 332 334 335 335 333 333 333 332 331 327 321 314 306 298 292 288 286 285 285 286 287 288 291 293 296 298 299 300 301 302 302 302 301 300 299 297 295 292 290 287 285 282 280 278 276
313 314 314 313 313 313 314 315 316 317 318 318 318 318 317 317 317 318 318 319 319 318 317 316 317 319 321 324 326 329 330 330 329 327 325 325 326 330 332 333 333 333 335 337 336 335 335 336 336 334 329 323 315 306 298 293 290 289 289 289 290 292 294 296 298 300 301 302 302 303 303 304 304 303 303 302 301 299 297 295 292 289 286 282 279 276
314 314 314 314 313 314 315 316 317 318 319 319 319 318 318 318 318 318 318 318 317 315 314 314 316 318 321 324 326 329 331 332 330 328 326 325 327 331 334 334 334 334 336 338 338 338 338 340 341 339 335 328 318 308 300 296 294 293 294 295 297 299 301 302 303 304 304 304 305 305 306 306 306 306 306 305 304 303 301 299 297 294 290 286 282 278
314 314 313 313 313 314 315 316 317 319 320 320 320 319 318 318 317 317 316 315 314 312 313 314 315 318 322 324 326 329 332 332 331 328 326 326 328 331 335 335 335 335 337 339 340 341 342 345 347 346 342 333 322 312 305 301 300 300 302 304 306 307 309 309 309 309 309 310 311 312 312 313 312 312 311 309 308 306 304 302 300 297 294 290 286 281
313 313 313 313 314 315 316 317 319 321 321 321 321 319 317 316 314 313 312 312 311 312 313 315 317 320 322 324 327 329 332 333 331 328 327 327 329 332 335 336 337 337 338 339 341 344 347 351 354 354 350 341 331 321 316 314 313 315 317 318 320 320 319 318 317 317 317 318 318 318 318 317 316 315 313 312 310 308 306 304 302 299 296 293 289 285
313 314 314 315 317 318 319 320 321 322 322 321 319 316 314 312 311 310 310 310 312 313 315 317 320 322 324 325 327 329 332 333 331 329 328 328 330 332 335 337 338 338 339 340 343 348 353 356 359 1 360 352 345 340 337 337 337 338 337 336 333 329 325 322 320 319 319 319 319 318 317 316 315 313 312 310 308 306 304 303 301 299 296 293 290 287
316 317 318 320 321 321 321 322 322 321 320 318 316 313 311 310 309 309 310 311 314 316 318 320 322 324 325 325 327 329 332 333 331 329 329 329 330 332 335 337 338 340 340 340 343 350 359 3 4 5 5 2 359 357 357 357 355 352 347 342 335 329 323 319 318 317 317 317 317 316 315 314 313 311 309 306 304 302 300 298 297 295 292 290 288 287
320 321 323 324 323 322 321 321 320 319 317 316 314 312 310 309 309 310 312 315 317 320 321 323 324 325 326 326 327 328 331 332 331 329 329 329 330 333 335 337 339 341 341 341 343 349 2 12 13 9 7 6 4 3 3 1 357 352 346 339 332 326 322 319 318 318 317 317 317 316 315 314 313 311 308 306 303 300 298 295 293 290 288 286 285 284
326 327 327 325 324 322 320 319 318 317 316 315 314 313 312 311 312 314 317 319 321 323 324 325 326 327 327 327 326 327 329 331 331 329 329 329 331 333 335 337 339 341 342 341 341 345 357 14 22 18 13 8 5 3 2 359 354 348 343 338 333 329 325 323 321 320 319 318 318 318 318 317 316 314 312 309 306 303 299 296 292 289 286 284 282 281
330 329 327 325 323 321 319 318 318 317 317 317 316 315 315 315 316 318 321 323 325 326 327 328 328 328 327 327 326 327 328 330 330 329 330 330 331 333 335 336 338 340 341 341 341 342 347 359 15 22 19 11 3 359 358 355 352 348 344 341 338 335 331 328 325 322 321 319 320 320 321 321 320 319 317 315 311 308 303 299 294 290 287 284 282 280
331 329 326 323 321 320 320 319 319 319 319 319 318 318 318 319 320 323 325 327 329 330 330 330 330 329 328 327 326 326 328 329 330 330 331 331 331 332 334 336 337 339 340 341 341 342 344 349 356 5 11 8 2 356 353 352 351 349 347 344 342 339 336 333 329 326 324 323 322 323 323 323 323 322 321 318 315 312 307 302 297 292 289 286 283 281
330 326 323 322 321 320 320 320 321 321 321 321 321 321 322 323 324 326 329 331 333 333 333 333 332 331 330 328 327 327 328 329 330 331 331 331 331 331 333 334 336 338 339 341 342 343 344 346 347 347 350 357 357 353 349 348 348 347 346 344 343 340 338 335 332 329 327 326 325 324 324 324 324 324 322 320 317 313 309 304 298 293 289 287 284 282
326 324 322 321 321 321 322 322 323 323 323 323 324 325 325 326 328 330 332 334 336 336 335 335 334 332 331 330 329 329 329 330 331 331 331 331 331 331 332 333 335 337 338 341 342 343 343 345 343 339 336 339 343 345 344 343 343 343 343 342 340 339 336 334 332 330 328 327 326 325 325 325 325 324 323 321 317 313 308 303 298 293 289 286 284 283
324 323 322 322 322 323 324 324 325 326 326 327 328 328 328 329 330 332 334 336 336 336 335 335 334 333 332 331 330 330 330 330 331 331 331 331 330 330 331 333 335 336 338 340 342 342 340 339 336 333 330 329 331 334 336 337 338 339 339 338 337 336 334 332 330 329 328 327 327 326 326 327 327 326 324 322 318 313 307 302 297 293 289 286 283 282
324 324 324 324 325 325 326 327 328 330 331 332 331 331 330 330 331 333 335 336 336 335 334 334 334 333 332 330 330 329 329 329 330 330 331 331 330 330 330 332 334 336 338 340 341 341 338 334 330 328 327 327 328 330 332 333 334 335 335 335 334 333 331 330 329 328 328 328 328 328 329 329 329 328 327 324 321 315 308 302 297 293 289 285 282 280
326 326 327 327 328 328 329 330 332 334 336 336 334 331 330 330 332 334 335 335 335 334 334 333 333 332 331 330 328 328 328 328 329 330 331 331 330 329 329 331 333 336 338 339 339 338 336 333 330 327 324 324 327 330 332 333 333 333 332 331 331 330 330 329 329 329 329 329 330 330 331 331 331 330 330 329 326 322 314 306 298 292 288 283 280 278
328 329 330 331 331 331 332 333 336 338 337 336 333 330 329 330 332 334 335 335 335 334 333 332 332 331 330 328 327 326 327 327 329 330 331 331 330 330 329 330 332 335 338 338 337 335 333 331 329 327 325 324 326 329 332 333 332 331 330 329 328 329 329 330 330 330 330 331 332 333 333 333 333 333 333 334 333 330 323 313 302 294 289 283 280 277
331 332 333 334 334 335 335 337 338 339 337 333 330 328 329 331 333 334 335 336 335 334 333 332 331 330 329 327 326 325 325 326 328 330 332 332 331 331 330 330 331 333 335 337 336 333 331 329 328 327 325 325 326 329 331 333 332 331 330 329 329 330 331 332 332 332 332 334 335 335 335 335 336 337 338 339 339 336 330 318 307 298 292 288 286 284
333 334 335 336 337 337 339 340 341 339 336 332 329 328 331 334 336 337 338 337 337 336 334 333 332 330 329 326 325 324 325 326 329 331 333 333 333 332 331 331 332 333 334 335 334 332 330 328 327 327 326 326 327 329 331 333 334 333 332 331 331 331 332 334 334 335 336 337 337 338 338 338 339 340 342 342 341 338 332 323 313 304 299 296 294 293
335 336 337 338 339 341 342 343 342 339 335 331 330 332 336 339 340 341 341 341 340 340 339 337 335 333 330 327 325 324 326 328 330 333 334 335 334 334 333 333 333 333 334 334 333 332 330 328 327 327 327 327 328 329 331 333 334 334 334 333 332 332 333 335 337 338 339 339 340 340 340 340 342 343 344 344 342 338 333 326 320 314 310 307 304 301
336 337 338 340 342 344 345 345 343 339 335 333 334 337 340 342 343 344 343 343 343 344 344 343 340 337 333 330 328 327 328 329 331 333 334 335 336 336 335 335 334 334 333 333 332 331 330 328 327 327 327 328 329 331 332 333 334 334 334 333 333 334 335 337 338 339 340 341 342 343 343 344 344 345 345 344 343 340 337 333 329 325 322 319 316 312
337 338 339 341 343 346 347 346 344 341 339 338 339 341 342 344 345 345 344 344 345 346 347 346 343 339 336 334 332 330 329 329 330 332 334 336 337 338 338 337 335 334 333 332 331 330 329 328 328 328 328 329 330 332 332 333 333 333 333 333 334 335 338 339 340 341 342 344 345 346 346 347 347 347 347 346 346 346 345 343 340 336 332 329 326 325
337 337 339 341 344 346 347 346 345 344 344 343 343 343 344 344 344 344 344 344 345 346 348 347 344 342 340 338 336 333 330 328 328 330 333 336 338 340 339 338 336 334 332 332 331 330 329 329 328 328 329 329 330 331 332 332 332 332 332 333 334 336 339 341 343 344 345 346 348 349 350 350 349 348 348 349 350 352 353 351 347 343 339 335 333 333
336 336 337 339 341 342 343 343 344 345 346 345 344 343 343 343 342 342 342 343 344 345 346 346 345 344 344 342 339 335 332 329 327 329 332 335 338 339 339 338 336 334 333 332 332 331 331 330 329 328 328 329 330 330 331 331 331 331 332 333 335 338 341 344 346 347 348 349 351 352 353 353 352 350 350 352 355 358 359 356 350 344 339 334 334 338
336 335 335 334 335 336 337 338 339 342 343 344 343 342 341 340 339 340 341 343 343 343 343 343 343 344 345 344 342 339 336 332 330 329 331 334 336 338 338 337 335 333 332 332 332 332 332 331 330 329 328 328 329 330 330 331 331 332 333 335 337 340 343 346 349 350 351 352 354 356 356 355 354 353 354 357 0 3 3 358 351 344 338 334 337 343
336 334 333 333 332 333 333 334 335 337 339 341 342 341 340 338 338 338 340 342 343 342 341 341 341 342 344 345 345 343 340 337 333 331 331 333 335 336 336 334 332 330 329 329 330 331 332 332 331 330 329 328 328 329 330 331 332 333 335 337 339 342 346 349 351 352 353 355 358 360 359 357 355 354 356 360 5 8 6 1 355 350 346 344 347 352
336 335 334 333 333 334 334 335 336 337 339 340 341 341 340 339 338 338 340 342 342 342 341 340 339 340 341 344 346 345 344 341 337 334 333 333 335 336 335 333 330 327 325 324 325 326 328 331 331 330 328 328 328 328 330 331 333 335 338 340 342 345 347 350 352 354 356 359 1 3 3 360 357 356 356 360 5 9 6 3 3 2 358 355 356 356
337 336 335 335 335 336 337 338 339 340 341 341 342 342 341 339 338 338 340 341 342 342 341 340 339 338 339 342 345 347 347 345 341 337 335 334 335 337 337 334 331 327 323 321 319 319 321 325 328 330 329 328 328 329 330 332 334 337 340 342 345 347 349 351 353 356 358 1 4 6 5 3 0 358 358 0 4 6 5 6 9 9 3 360 357 352
338 337 336 336 336 337 339 340 340 341 340 341 341 342 341 340 339 339 339 341 342 342 342 340 339 338 339 341 345 348 349 348 345 341 338 336 337 338 339 337 335 331 327 324 321 319 319 320 325 329 331 330 330 331 333 334 336 338 341 344 346 348 350 351 354 357 1 4 7 8 7 5 2 360 359 1 3 4 5 8 13 11 3 3 2 355
Height
2924 2921 2918 2916 2914 2912 2908 2906 2904 2903 2901 2898 2895 2893 2892 2890 2888 2885 2883 2882 2880 2877 2875 2873 2870 2868 2867 2865 2863 2862 2860 2858 2857 2855 2853 2851 2849 2847 2845 2843 2841 2840 2838 2836 2835 2833 2832 2831 2829 2828 2826 2825 2824 2823 2822 2821 2820 2819 2819 2818 2818 2817 2817 2817 2817 2817 2817 2817 2817 2818 2818 2818 2818 2819 2819 2820 2820 2820 2821 2822 2823 2824 2825 2826 2827 2828
2920 2917 2914 2912 2910 2908 2905 2902 2900 2898 2897 2894 2892 2890 2888 2886 2884 2882 2880 2878 2875 2873 2871 2868 2866 2864 2863 2861 2860 2858 2857 2855 2853 2851 2849 2847 2845 2843 2842 2839 2838 2836 2834 2833 2831 2830 2828 2827 2825 2824 2823 2821 2820 2819 2818 2817 2817 2816 2815 2814 2814 2814 2814 2813 2813 2813 2813 2813 2813 2813 2813 2813 2814 2814 2815 2815 2815 2816 2817 2818 2819 2820 2821 2822 2823 2824
2917 2914 2910 2908 2906 2904 2902 2900 2897 2894 2892 2891 2889 2887 2884 2882 2880 2878 2875 2873 2871 2869 2867 2865 2863 2861 2859 2858 2857 2855 2853 2852 2850 2848 2846 2844 2842 2840 2838 2836 2835 2833 2831 2830 2828 2827 2825 2823 2822 2821 2819 2818 2817 2815 2814 2813 2813 2812 2811 2811 2810 2810 2810 2809 2809 2809 2809 2809 2809 2809 2809 2809 2810 2810 2810 2811 2811 2813 2814 2815 2817 2817 2818 2818 2819 2820
2912 2910 2907 2904 2902 2900 2898 2896 2894 2892 2889 2887 2885 2883 2881 2878 2875 2873 2871 2869 2867 2865 2863 2862 2860 2858 2856 2855 2853 2852 2850 2848 2846 2844 2842 2840 2839 2837 2835 2834 2832 2831 2829 2827 2826 2824 2823 2821 2819 2818 2816 2814 2813 2812 2811 2810 2809 2808 2807 2807 2806 2806 2806 2805 2805 2805 2805 2805 2806 2806 2806 2806 2807 2807 2807 2807 2808 2810 2811 2813 2814 2814 2814 2814 2815 2816
2908 2906 2903 2901 2898 2895 2893 2892 2891 2888 2886 2884 2882 2879 2877 2874 2871 2868 2867 2865 2863 2862 2860 2859 2857 2855 2853 2851 2849 2848 2846 2844 2843 2841 2839 2838 2836 2835 2833 2832 2830 2828 2827 2825 2823 2822 2820 2818 2817 2815 2813 2812 2810 2808 2807 2806 2805 2804 2803 2803 2802 2802 2801 2801 2801 2801 2801 2801 2802 2802 2803 2803 2803 2803 2803 2803 2804 2805 2806 2807 2808 2808 2808 2809 2810 2811
2903 2902 2900 2898 2895 2892 2890 2888 2887 2885 2883 2879 2877 2875 2873 2870 2867 2865 2863 2862 2860 2859 2857 2856 2854 2852 2850 2848 2846 2844 2843 2842 2840 2839 2838 2836 2834 2833 2831 2830 2828 2826 2824 2823 2821 2819 2817 2815 2813 2812 2810 2808 2807 2805 2804 2803 2802 2800 2799 2799 2798 2798 2797 2797 2797 2797 2797 2797 2797 2797 2798 2797 2797 2797 2797 2797 2798 2798 2799 2800 2800 2801 2801 2802 2803 2803
2899 2897 2895 2894 2892 2889 2887 2885 2884 2882 2879 2876 2873 2870 2868 2867 2865 2863 2861 2859 2858 2856 2854 2853 2851 2849 2847 2845 2843 2842 2841 2839 2838 2837 2835 2834 2832 2830 2829 2827 2825 2823 2821 2819 2818 2816 2814 2812 2811 2809 2807 2806 2804 2802 2801 2799 2798 2797 2796 2795 2794 2793 2793 2793 2792 2792 2792 2792 2792 2792 2792 2792 2792 2792 2792 2793 2793 2793 2794 2795 2796 2796 2796 2797 2797 2798
2896 2894 2892 2890 2888 2886 2884 2882 2880 2878 2876 2873 2869 2867 2865 2863 2862 2860 2858 2857 2855 2853 2852 2849 2848 2846 2845 2843 2842 2840 2839 2837 2836 2834 2832 2831 2829 2827 2826 2824 2822 2820 2818 2817 2815 2813 2811 2810 2808 2806 2804 2803 2801 2799 2798 2796 2795 2793 2792 2791 2790 2790 2789 2788 2788 2788 2788 2788 2788 2788 2788 2788 2788 2788 2788 2788 2789 2789 2790 2791 2792 2792 2792 2793 2793 2793
2893 2891 2889 2887 2885 2883 2881 2878 2875 2874 2873 2870 2867 2864 2862 2859 2858 2857 2856 2854 2853 2851 2849 2847 2845 2843 2842 2841 2840 2838 2837 2835 2833 2831 2829 2827 2825 2824 2823 2821 2819 2817 2816 2814 2812 2810 2808 2807 2805 2803 2801 2799 2798 2796 2794 2793 2791 2790 2789 2788 2787 2786 2785 2785 2784 2784 2784 2783 2783 2783 2783 2783 2784 2784 2784 2784 2785 2785 2786 2787 2787 2788 2788 2789 2789 2789
2890 2888 2886 2883 2881 2880 2878 2875 2872 2870 2869 2867 2865 2863 2861 2858 2855 2853 2851 2851 2850 2849 2847 2845 2842 2840 2839 2838 2838 2836 2834 2832 2830 2828 2826 2824 2822 2821 2819 2818 2816 2814 2813 2811 2809 2808 2806 2804 2802 2800 2798 2796 2794 2793 2791 2789 2788 2787 2785 2784 2783 2783 2782 2781 2781 2780 2780 2779 2779 2779 2779 2779 2779 2779 2780 2780 2780 2781 2781 2782 2783 2783 2784 2784 2785 2785
2886 2884 2882 2879 2877 2876 2874 2872 2870 2868 2867 2865 2863 2861 2859 2857 2854 2850 2848 2847 2847 2846 2845 2843 2841 2838 2836 2835 2834 2833 2831 2829 2827 2825 2823 2822 2820 2818 2817 2815 2813 2812 2810 2808 2806 2804 2803 2801 2798 2797 2794 2793 2791 2789 2787 2786 2784 2783 2782 2781 2780 2779 2778 2777 2777 2776 2776 2775 2775 2775 2775 2775 2775 2775 2775 2775 2776 2776 2777 2777 2778 2778 2779 2779 2780 2781
2883 2881 2879 2877 2875 2873 2872 2870 2868 2867 2865 2863 2860 2858 2856 2855 2853 2850 2847 2844 2843 2843 2842 2840 2839 2837 2834 2832 2830 2829 2828 2826 2824 2822 2820 2818 2817 2815 2813 2812 2810 2808 2806 2805 2803 2802 2800 2798 2795 2793 2791 2789 2788 2786 2784 2782 2781 2779 2778 2777 2776 2775 2774 2773 2773 2772 2772 2772 2771 2771 2771 2771 2771 2771 2771 2771 2772 2772 2772 2772 2773 2773 2774 2774 2775 2776
2880 2878 2877 2875 2873 2872 2870 2868 2866 2864 2863 2861 2858 2855 2853 2852 2850 2848 2845 2843 2841 2840 2838 2837 2836 2835 2833 2830 2828 2825 2823 2822 2820 2819 2817 2816 2814 2812 2810 2808 2807 2805 2803 2801 2800 2798 2796 2794 2792 2790 2788 2786 2784 2783 2781 2779 2778 2776 2775 2773 2773 2772 2771 2770 2769 2768 2768 2768 2768 2767 2767 2767 2767 2767 2767 2767 2768 2768 2768 2768 2768 2768 2769 2769 2770 2771
2878 2877 2874 2873 2871 2870 2868 2866 2864 2862 2860 2858 2856 2853 2851 2849 2847 2845 2843 2841 2839 2838 2836 2834 2833 2831 2830 2828 2825 2823 2820 2818 2816 2815 2814 2813 2811 2809 2807 2805 2803 2802 2800 2798 2796 2795 2793 2791 2789 2787 2785 2783 2782 2780 2778 2776 2774 2773 2772 2770 2769 2768 2767 2767 2766 2765 2765 2764 2764 2764 2763 2763 2763 2763 2763 2763 2763 2763 2763 2763 2764 2764 2764 2765 2765 2766
2877 2874 2873 2871 2869 2868 2866 2864 2862 2859 2857 2856 2854 2851 2849 2847 2845 2843 2841 2839 2837 2836 2834 2832 2830 2829 2828 2826 2824 2821 2818 2816 2813 2811 2810 2809 2808 2807 2804 2802 2800 2798 2797 2795 2793 2792 2790 2788 2786 2783 2782 2780 2779 2777 2775 2773 2771 2770 2768 2767 2766 2765 2764 2763 2763 2762 2761 2761 2760 2760 2760 2760 2760 2759 2759 2760 2760 2760 2760 2760 2760 2760 2760 2761 2761 2762
2874 2873 2870 2868 2866 2865 2863 2862 2859 2857 2855 2853 2852 2849 2847 2845 2843 2841 2839 2837 2835 2833 2831 2829 2827 2825 2825 2824 2823 2820 2817 2814 2811 2808 2807 2806 2806 2805 2803 2799 2797 2795 2794 2793 2790 2788 2787 2785 2783 2781 2779 2777 2776 2774 2772 2770 2768 2767 2765 2764 2763 2762 2761 2760 2760 2759 2758 2758 2757 2757 2756 2756 2756 2756 2756 2756 2756 2756 2756 2756 2756 2756 2757 2757 2757 2758
2872 2870 2868 2866 2863 2862 2861 2859 2858 2855 2853 2851 2849 2847 2845 2843 2841 2839 2837 2835 2833 2831 2828 2826 2824 2822 2820 2821 2821 2820 2816 2812 2809 2806 2804 2803 2803 2802 2800 2797 2794 2793 2791 2790 2788 2786 2784 2782 2780 2778 2776 2774 2773 2771 2769 2767 2765 2764 2763 2761 2760 2759 2758 2757 2757 2756 2755 2754 2754 2753 2753 2753 2752 2752 2752 2752 2752 2752 2752 2752 2752 2752 2752 2753 2753 2753
2869 2868 2866 2863 2861 2859 2858 2857 2855 2853 2851 2849 2847 2845 2843 2842 2839 2837 2835 2833 2831 2828 2826 2824 2823 2821 2818 2817 2817 2817 2815 2811 2807 2803 2802 2800 2800 2799 2798 2795 2793 2790 2788 2787 2785 2783 2781 2779 2777 2775 2773 2771 2769 2768 2766 2764 2763 2761 2760 2758 2757 2756 2755 2754 2753 2753 2752 2751 2750 2750 2750 2749 2749 2749 2748 2748 2748 2748 2748 2748 2748 2748 2748 2748 2748 2749
2866 2865 2864 2861 2859 2857 2856 2855 2853 2851 2849 2847 2844 2843 2841 2839 2838 2835 2833 2831 2829 2827 2825 2823 2821 2819 2817 2815 2814 2814 2813 2809 2805 2802 2799 2798 2797 2797 2795 2793 2790 2788 2786 2784 2782 2780 2778 2776 2774 2773 2771 2769 2767 2765 2763 2761 2759 2758 2757 2755 2754 2753 2752 2751 2750 2749 2748 2748 2748 2747 2747 2746 2746 2746 2745 2745 2745 2745 2745 2744 2744 2744 2744 2744 2744 2744
2863 2863 2862 2860 2858 2855 2854 2853 2851 2849 2847 2845 2843 2840 2838 2837 2835 2834 2832 2830 2828 2826 2824 2821 2819 2817 2815 2813 2812 2811 2810 2807 2803 2800 2798 2796 2795 2794 2793 2790 2788 2785 2784 2782 2780 2778 2775 2773 2772 2770 2768 2766 2764 2762 2760 2758 2757 2755 2754 2753 2751 2750 2749 2748 2747 2747 2746 2746 2745 2745 2744 2744 2743 2743 2743 2743 2742 2742 2741 2741 2741 2740 2740 2740 2740 2740
2862 2861 2860 2858 2856 2853 2851 2850 2849 2848 2845 2843 2841 2838 2837 2835 2833 2832 2830 2828 2826 2824 2822 2820 2817 2815 2814 2812 2811 2809 2808 2805 2802 2798 2796 2793 2793 2792 2790 2788 2785 2783 2781 2779 2778 2775 2773 2770 2768 2767 2765 2763 2761 2759 2757 2755 2754 2753 2751 2750 2748 2748 2747 2746 2745 2745 2744 2744 2743 2743 2742 2742 2741 2741 2740 2740 2739 2739 2738 2738 2738 2737 2737 2737 2736 2736
2860 2859 2858 2857 2854 2852 2850 2848 2847 2845 2843 2842 2840 2838 2835 2833 2832 2829 2828 2826 2824 2822 2820 2818 2816 2814 2813 2811 2809 2808 2807 2804 2801 2797 2794 2791 2790 2789 2788 2786 2783 2781 2779 2777 2775 2772 2770 2768 2766 2764 2762 2760 2758 2756 2754 2753 2751 2750 2749 2748 2746 2745 2744 2744 2743 2743 2743 2742 2741 2741 2740 2739 2739 2738 2738 2737 2736 2736 2735 2735 2734 2734 2733 2733 2733 2733
2858 2857 2856 2854 2853 2850 2848 2846 2844 2843 2842 2840 2838 2836 2834 2832 2830 2828 2826 2824 2822 2820 2818 2815 2814 2812 2811 2810 2808 2807 2806 2803 2800 2796 2793 2789 2788 2787 2786 2783 2781 2778 2776 2774 2772 2769 2767 2765 2763 2761 2759 2758 2756 2754 2752 2750 2749 2748 2747 2746 2745 2744 2743 2743 2742 2742 2741 2740 2739 2738 2738 2737 2736 2735 2734 2734 2733 2733 2732 2732 2731 2731 2730 2730 2729 2729
2857 2855 2853 2852 2850 2848 2847 2845 2843 2842 2840 2838 2837 2835 2833 2831 2829 2827 2824 2822 2820 2818 2815 2813 2811 2810 2810 2809 2808 2806 2804 2802 2798 2795 2791 2788 2786 2785 2783 2781 2778 2776 2774 2772 2769 2767 2764 2763 2761 2759 2757 2755 2753 2751 2750 2748 2747 2746 2745 2744 2743 2743 2743 2742 2741 2741 2740 2738 2738 2736 2735 2734 2733 2733 2732 2731 2731 2730 2729 2729 2728 2728 2727 2727 2726 2726
2855 2853 2852 2850 2848 2847 2846 2844 2842 2840 2838 2837 2835 2833 2831 2829 2827 2825 2823 2821 2819 2816 2814 2812 2810 2809 2808 2807 2806 2804 2803 2801 2797 2793 2790 2786 2784 2783 2782 2779 2776 2773 2771 2769 2767 2765 2762 2760 2758 2757 2754 2753 2751 2750 2748 2747 2746 2745 2744 2743 2743 2742 2742 2741 2740 2739 2738 2737 2736 2735 2734 2733 2732 2731 2730 2729 2728 2728 2727 2726 2725 2725 2724 2724 2723 2722
2853 2852 2850 2848 2847 2846 2844 2842 2841 2839 2837 2835 2833 2831 2829 2827 2825 2823 2822 2820 2818 2815 2813 2810 2808 2807 2806 2805 2804 2803 2801 2799 2796 2792 2789 2785 2783 2781 2780 2778 2774 2771 2768 2767 2765 2763 2760 2758 2756 2755 2753 2751 2750 2748 2747 2746 2745 2744 2744 2743 2742 2741 2740 2739 2738 2737 2736 2735 2734 2733 2733 2732 2730 2729 2728 2728 2726 2725 2725 2724 2723 2722 2722 2721 2720 2719
2852 2850 2849 2847 2845 2844 2842 2841 2839 2838 2836 2834 2833 2830 2828 2826 2824 2822 2821 2819 2817 2814 2812 2809 2807 2805 2804 2803 2802 2800 2799 2797 2794 2790 2787 2784 2781 2779 2777 2775 2773 2770 2767 2764 2763 2761 2758 2757 2755 2753 2752 2750 2749 2748 2747 2745 2745 2744 2743 2742 2741 2740 2739 2738 2737 2736 2735 2734 2733 2732 2731 2729 2728 2727 2726 2725 2724 2723 2722 2721 2720 2719 2718 2717 2716 2715
2850 2848 2847 2845 2843 2842 2840 2839 2838 2836 2835 2833 2832 2830 2828 2825 2823 2821 2819 2817 2815 2813 2810 2808 2806 2803 2801 2800 2799 2798 2797 2795 2792 2788 2785 2782 2779 2777 2776 2774 2771 2768 2765 2763 2761 2759 2758 2755 2753 2752 2751 2749 2748 2747 2746 2745 2744 2743 2743 2742 2741 2739 2738 2737 2736 2735 2734 2733 2732 2731 2730 2728 2727 2726 2725 2723 2722 2721 2720 2719 2718 2716 2715 2714 2712 2711
2848 2847 2845 2843 2842 2840 2839 2838 2836 2835 2834 2833 2831 2829 2827 2824 2822 2820 2817 2815 2813 2811 2809 2807 2804 2802 2800 2798 2796 2796 2795 2793 2790 2787 2784 2781 2778 2776 2774 2773 2770 2768 2764 2761 2759 2758 2757 2755 2753 2751 2750 2749 2748 2747 2746 2745 2744 2743 2743 2742 2741 2739 2738 2737 2736 2735 2734 2733 2732 2730 2729 2728 2726 2725 2723 2722 2721 2719 2718 2717 2716 2714 2712 2711 2709 2708
2846 2845 2843 2842 2841 2839 2838 2837 2835 2834 2833 2831 2830 2828 2825 2823 2820 2818 2816 2814 2812 2810 2808 2805 2803 2801 2798 2796 2794 2793 2793 2792 2789 2786 2783 2780 2777 2775 2773 2771 2769 2767 2764 2760 2758 2756 2755 2754 2753 2751 2750 2749 2748 2747 2746 2745 2744 2743 2742 2741 2740 2739 2738 2737 2735 2734 2733 2732 2731 2729 2728 2726 2725 2723 2722 2720 2718 2717 2716 2714 2713 2712 2710 2708 2707 2705
2844 2843 2842 2841 2839 2838 2837 2836 2834 2833 2831 2830 2828 2826 2823 2821 2819 2817 2815 2813 2811 2808 2806 2804 2802 2800 2798 2795 2793 2791 2790 2789 2788 2785 2782 2779 2776 2773 2772 2769 2768 2766 2764 2761 2758 2755 2753 2753 2753 2751 2750 2749 2748 2747 2745 2744 2743 2743 2741 2740 2739 2738 2737 2736 2734 2733 2732 2731 2729 2728 2726 2725 2723 2721 2719 2718 2716 2714 2713 2712 2711 2709 2707 2705 2703 2702
2843 2842 2840 2839 2838 2837 2835 2834 2833 2831 2829 2827 2825 2823 2821 2819 2818 2815 2813 2812 2810 2808 2805 2803 2801 2799 2797 2795 2793 2791 2788 2788 2786 2783 2781 2778 2775 2772 2771 2768 2767 2765 2764 2762 2759 2756 2754 2752 2752 2751 2750 2748 2747 2746 2745 2744 2743 2742 2741 2739 2738 2737 2736 2735 2733 2732 2731 2729 2728 2726 2725 2723 2721 2719 2718 2716 2714 2712 2711 2709 2708 2706 2704 2702 2700 2699
2841 2840 2839 2838 2836 2835 2834 2832 2830 2828 2827 2825 2823 2821 2820 2818 2816 2815 2813 2811 2809 2807 2804 2802 2800 2798 2795 2794 2792 2790 2788 2787 2784 2782 2780 2777 2774 2771 2769 2768 2766 2764 2763 2761 2759 2757 2755 2753 2751 2750 2749 2748 2747 2746 2745 2743 2743 2741 2740 2739 2738 2736 2735 2734 2732 2731 2729 2728 2726 2724 2723 2721 2719 2717 2715 2713 2712 2710 2708 2707 2705 2704 2702 2699 2697 2696
2840 2839 2837 2836 2835 2833 2832 2830 2828 2826 2824 2823 2821 2820 2818 2817 2815 2813 2812 2810 2808 2806 2804 2801 2799 2797 2794 2792 2790 2789 2788 2786 2784 2782 2779 2776 2773 2771 2769 2767 2765 2763 2762 2760 2758 2757 2755 2753 2751 2750 2749 2748 2747 2745 2744 2743 2742 2741 2739 2738 2737 2735 2734 2732 2731 2729 2728 2726 2724 2722 2720 2718 2717 2714 2713 2711 2708 2707 2705 2703 2702 2701 2699 2697 2694 2693
2838 2837 2836 2834 2833 2831 2829 2828 2826 2824 2823 2821 2820 2818 2817 2815 2814 2813 2811 2809 2807 2805 2803 2802 2799 2797 2794 2791 2789 2787 2786 2784 2783 2781 2779 2776 2773 2770 2768 2767 2765 2763 2761 2759 2758 2756 2754 2753 2751 2750 2748 2747 2746 2745 2744 2743 2741 2740 2739 2737 2736 2734 2732 2730 2729 2727 2725 2724 2722 2720 2718 2716 2713 2711 2709 2707 2705 2703 2702 2700 2699 2697 2696 2694 2692 2690
2837 2836 2834 2832 2830 2829 2827 2825 2824 2823 2821 2820 2818 2817 2816 2814 2813 2811 2810 2808 2806 2805 2803 2801 2799 2797 2795 2792 2789 2786 2784 2783 2782 2780 2778 2776 2773 2770 2768 2766 2764 2762 2760 2758 2757 2755 2753 2752 2751 2749 2748 2746 2745 2744 2743 2742 2741 2740 2738 2737 2735 2733 2731 2729 2727 2725 2723 2721 2719 2717 2715 2713 2710 2708 2706 2704 2702 2700 2698 2697 2695 2693 2692 2690 2689 2687
2835 2834 2832 2830 2828 2827 2825 2823 2822 2821 2819 2818 2817 2816 2814 2813 2812 2810 2808 2807 2805 2803 2802 2800 2798 2797 2794 2792 2789 2787 2784 2782 2781 2779 2777 2775 2773 2770 2768 2765 2764 2762 2760 2758 2756 2755 2753 2751 2750 2749 2748 2746 2744 2743 2742 2741 2740 2739 2738 2736 2734 2733 2730 2728 2726 2723 2721 2719 2717 2714 2712 2710 2707 2705 2703 2700 2698 2696 2694 2693 2691 2689 2688 2686 2685 2683
2834 2832 2830 2828 2826 2824 2823 2822 2820 2819 2818 2817 2815 2814 2813 2812 2810 2809 2808 2806 2804 2802 2801 2799 2797 2795 2793 2792 2789 2787 2784 2782 2780 2778 2776 2774 2772 2770 2767 2765 2763 2762 2760 2758 2756 2754 2753 2751 2749 2748 2747 2745 2744 2743 2741 2740 2738 2737 2736 2735 2734 2732 2729 2727 2724 2722 2719 2717 2714 2712 2709 2707 2704 2702 2699 2697 2695 2693 2691 2689 2687 2686 2684 2682 2680 2679
2832 2830 2828 2827 2825 2823 2821 2820 2819 2818 2817 2815 2814 2813 2812 2810 2809 2808 2806 2804 2803 2801 2799 2797 2795 2794 2792 2790 2788 2786 2784 2782 2779 2778 2775 2773 2771 2769 2767 2764 2762 2761 2759 2758 2756 2754 2752 2751 2749 2747 2745 2744 2743 2742 2741 2739 2738 2736 2734 2733 2732 2731 2728 2726 2723 2720 2717 2715 2712 2709 2707 2704 2701 2698 2696 2693 2691 2688 2687 2685 2683 2682 2680 2678 2676 2675
2830 2828 2827 2825 2823 2822 2820 2819 2818 2817 2816 2814 2813 2812 2811 2809 2808 2807 2805 2803 2802 2799 2797 2796 2794 2792 2791 2789 2787 2785 2783 2781 2779 2777 2774 2772 2770 2768 2766 2763 2761 2759 2758 2757 2755 2753 2752 2750 2748 2747 2745 2743 2742 2740 2739 2738 2736 2734 2732 2730 2729 2728 2726 2724 2721 2718 2715 2713 2709 2706 2703 2701 2698 2695 2693 2690 2688 2685 2683 2681 2679 2678 2676 2674 2672 2670
2829 2827 2825 2824 2822 2821 2820 2818 2817 2816 2815 2813 2812 2811 2809 2808 2807 2805 2803 2802 2800 2798 2796 2794 2792 2791 2790 2788 2786 2784 2782 2780 2778 2776 2773 2771 2769 2767 2765 2763 2761 2759 2757 2756 2754 2753 2751 2749 2748 2746 2744 2743 2741 2739 2738 2737 2735 2733 2731 2728 2726 2724 2723 2722 2719 2716 2713 2710 2707 2704 2701 2698 2695 2693 2690 2687 2685 2683 2681 2678 2676 2674 2672 2670 2669 2667
2828 2826 2824 2823 2821 2820 2819 2818 2817 2816 2814 2813 2811 2810 2808 2806 2805 2803 2801 2800 2798 2796 2794 2792 2790 2789 2788 2786 2785 2783 2781 2779 2777 2775 2773 2770 2768 2766 2764 2762 2760 2758 2756 2755 2753 2752 2751 2749 2747 2745 2743 2742 2740 2738 2737 2736 2735 2733 2730 2727 2724 2722 2720 2719 2717 2714 2711 2708 2705 2703 2699 2696 2693 2689 2687 2684 2682 2680 2678 2676 2673 2671 2669 2667 2666 2664
2826 2825 2823 2822 2821 2819 2818 2817 2816 2815 2814 2812 2810 2809 2807 2805 2803 2802 2800 2798 2796 2794 2792 2790 2788 2787 2785 2784 2783 2781 2780 2778 2776 2774 2772 2769 2767 2765 2763 2761 2760 2758 2756 2754 2753 2751 2750 2748 2747 2745 2743 2741 2739 2738 2736 2734 2733 2732 2730 2727 2724 2721 2718 2716 2714 2712 2710 2707 2703 2700 2697 2693 2690 2687 2685 2682 2680 2677 2675 2673 2670 2668 2666 2664 2663 2661
2825 2824 2823 2821 2820 2819 2818 2817 2816 2814 2813 2811 2809 2808 2806 2804 2803 2801 2798 2797 2795 2793 2791 2789 2787 2785 2783 2781 2780 2779 2778 2777 2775 2773 2771 2769 2767 2764 2763 2761 2759 2758 2756 2754 2752 2750 2749 2748 2746 2744 2743 2741 2739 2737 2735 2733 2732 2730 2729 2727 2724 2721 2718 2715 2712 2710 2707 2704 2702 2698 2695 2691 2688 2685 2682 2680 2677 2674 2672 2669 2667 2665 2664 2662 2660 2658
2824 2823 2822 2820 2819 2818 2817 2816 2815 2813 2812 2810 2808 2807 2805 2803 2802 2800 2798 2796 2794 2792 2790 2788 2786 2783 2781 2779 2778 2777 2775 2774 2773 2772 2770 2768 2766 2764 2762 2760 2759 2757 2756 2754 2752 2750 2748 2747 2745 2743 2742 2740 2739 2737 2735 2733 2731 2729 2727 2725 2723 2721 2718 2715 2712 2708 2705 2703 2700 2697 2693 2690 2686 2683 2679 2677 2674 2672 2669 2667 2665 2663 2662 2661 2659 2657
2823 2822 2821 2820 2818 2817 2816 2815 2814 2812 2811 2809 2808 2806 2804 2803 2801 2799 2797 2795 2793 2791 2789 2787 2785 2783 2780 2778 2776 2774 2773 2772 2771 2770 2768 2767 2765 2763 2762 2760 2758 2757 2755 2753 2752 2750 2748 2746 2744 2742 2741 2739 2738 2737 2735 2732 2730 2728 2726 2724 2722 2719 2717 2714 2711 2708 2705 2702 2698 2695 2691 2688 2684 2681 2678 2675 2672 2670 2668 2666 2665 2663 2661 2659 2658 2656
2822 2821 2820 2819 2818 2817 2815 2814 2813 2811 2810 2808 2807 2805 2804 2802 2800 2798 2797 2794 2793 2790 2788 2787 2785 2783 2780 2778 2775 2773 2771 2770 2769 2768 2767 2765 2764 2763 2761 2759 2758 2756 2755 2753 2752 2750 2748 2746 2743 2742 2740 2738 2737 2735 2734 2732 2730 2727 2725 2722 2720 2718 2715 2713 2710 2707 2704 2701 2697 2693 2689 2686 2682 2679 2676 2673 2671 2669 2668 2666 2664 2663 2661 2658 2657 2655
2821 2820 2819 2818 2817 2816 2815 2813 2812 2810 2809 2808 2806 2805 2803 2801 2799 2797 2795 2793 2792 2789 2788 2786 2784 2782 2780 2778 2776 2773 2771 2769 2767 2766 2765 2764 2763 2761 2760 2758 2757 2756 2754 2753 2751 2750 2748 2746 2744 2741 2739 2737 2736 2734 2733 2731 2729 2727 2724 2721 2718 2716 2713 2711 2709 2706 2703 2700 2697 2693 2689 2685 2682 2678 2675 2673 2670 2669 2668 2666 2664 2663 2661 2659 2657 2656
2820 2819 2818 2817 2816 2815 2814 2813 2811 2809 2808 2807 2805 2804 2802 2801 2799 2797 2795 2793 2791 2788 2787 2784 2783 2781 2779 2777 2775 2773 2771 2768 2767 2765 2764 2763 2761 2760 2758 2757 2756 2755 2754 2753 2751 2749 2748 2746 2744 2742 2739 2737 2735 2733 2731 2730 2728 2726 2723 2721 2718 2715 2712 2710 2708 2705 2702 2699 2695 2692 2689 2686 2683 2679 2676 2673 2671 2669 2668 2666 2665 2663 2662 2660 2658 2657
2820 2818 2817 2816 2815 2814 2813 2812 2810 2808 2807 2805 2804 2803 2801 2800 2798 2796 2794 2792 2790 2788 2786 2784 2782 2780 2778 2776 2774 2772 2770 2768 2766 2764 2763 2761 2760 2758 2757 2756 2755 2753 2753 2752 2750 2749 2748 2746 2745 2742 2739 2736 2734 2732 2730 2728 2726 2724 2722 2720 2717 2714 2712 2709 2707 2704 2701 2698 2694 2691 2687 2685 2682 2679 2677 2674 2672 2670 2668 2666 2665 2664 2663 2661 2659 2657
2819 2818 2817 2816 2814 2813 2812 2811 2809 2808 2806 2804 2803 2801 2800 2798 2797 2795 2793 2791 2789 2788 2786 2784 2782 2779 2777 2775 2773 2771 2769 2767 2765 2763 2762 2760 2759 2757 2756 2754 2753 2752 2751 2750 2748 2748 2746 2745 2744 2743 2740 2736 2733 2730 2728 2726 2724 2722 2720 2719 2717 2714 2711 2709 2706 2703 2700 2697 2693 2690 2687 2684 2682 2680 2677 2675 2673 2671 2669 2667 2665 2664 2663 2661 2659 2658